The Dalles, WA

2:30 PM PDT on October 13, 2019 (GMT -0700)
Columbia Gorge Regional-The Dalles

Weather History for KDLS - May, 2019

Change the Weather History Date:

Friday, May 17, 2019

  Actual Average Record
Temperature  
Mean Temperature 60 °F -  
Max Temperature 66 °F 74 °F 98 °F (2008)
Min Temperature 53 °F 48 °F 37 °F (1974)
Degree Days  
Heating Degree Days 5    
Growing Degree Days 10 (Base 50)    
Moisture  
Dew Point 42 °F    
Average Humidity 54    
Maximum Humidity 69    
Minimum Humidity 37    
Precipitation  
Precipitation 0.00 in - - ()
Sea Level Pressure  
Sea Level Pressure 29.84 in    
Wind  
Wind Speed 19 mph (WNW)    
Max Wind Speed 28 mph    
Max Gust Speed 40 mph    
Visibility 10 miles    
Events      
Averages and records for this station are not official NWS values.
T = Trace of Precipitation, MM = Missing Value Source: NWS Daily Summary

Daily Weather History Graph

Daily Weather History Graph

Search for Another Location

Airport or City:

Astronomy

May. 17, 2019 Rise Set
Actual Time 5:31 AM PDT 8:31 PM PDT
Civil Twilight 4:56 AM PDT 9:06 PM PDT
Nautical Twilight 4:11 AM PDT 9:51 PM PDT
Astronomical Twilight 3:18 AM PDT 10:45 PM PDT
Moon 7:19 PM PDT (5/17) 5:14 AM PDT (5/17)
Length of Visible Light 16h 09m
Length of Day
14h 59m
Waxing Gibbous, 99% of the Moon is Illuminated
May 17
Waxing Gibbous
May 18
Full
May 26
Last Quarter
Jun 3
New
Jun 9
First Quarter

Hourly Weather History & Observations

Time (PDT) Temp. Dew Point Humidity Pressure Visibility Wind Dir Wind Speed Gust Speed Precip Events Conditions
12:53 AM 57.9 °F 44.1 °F 60% 29.65 in 10.0 mi NW 18.4 mph 26.5 mph N/A   Clear
1:53 AM 57.0 °F 44.1 °F 62% 29.68 in 10.0 mi NW 15.0 mph - N/A   Partly Cloudy
2:53 AM 57.9 °F 41.0 °F 53% 29.70 in 10.0 mi WNW 18.4 mph 32.2 mph N/A   Overcast
3:53 AM 57.0 °F 41.0 °F 55% 29.72 in 10.0 mi WNW 15.0 mph 31.1 mph N/A   Mostly Cloudy
4:53 AM 55.9 °F 42.1 °F 60% 29.73 in 10.0 mi NW 16.1 mph - N/A   Clear
5:53 AM 55.0 °F 44.1 °F 67% 29.75 in 10.0 mi NW 18.4 mph 26.5 mph N/A   Mostly Cloudy
6:53 AM 55.0 °F 44.1 °F 67% 29.78 in 10.0 mi WNW 16.1 mph - N/A   Clear
7:53 AM 55.9 °F 46.0 °F 69% 29.80 in 10.0 mi NW 15.0 mph - N/A   Partly Cloudy
8:53 AM 59.0 °F 46.0 °F 62% 29.80 in 10.0 mi WNW 21.9 mph 33.4 mph N/A   Partly Cloudy
9:53 AM 63.0 °F 45.0 °F 52% 29.81 in 10.0 mi WNW 23.0 mph 35.7 mph N/A   Clear
10:53 AM 60.1 °F 44.1 °F 55% 29.84 in 10.0 mi WNW 26.5 mph 38.0 mph N/A   Overcast
11:53 AM 64.0 °F 43.0 °F 46% 29.86 in 10.0 mi WNW 27.6 mph 40.3 mph N/A   Scattered Clouds
12:53 PM 64.9 °F 43.0 °F 45% 29.88 in 10.0 mi WNW 25.3 mph 35.7 mph N/A   Scattered Clouds
1:53 PM 66.9 °F 39.9 °F 37% 29.88 in 10.0 mi WNW 19.6 mph 32.2 mph N/A   Mostly Cloudy
2:53 PM 63.0 °F 41.0 °F 45% 29.88 in 10.0 mi NW 21.9 mph 31.1 mph N/A   Scattered Clouds
3:53 PM 64.0 °F 39.0 °F 40% 29.90 in 10.0 mi West 23.0 mph 31.1 mph N/A   Mostly Cloudy
4:53 PM 66.0 °F 39.0 °F 37% 29.91 in 10.0 mi West 23.0 mph 32.2 mph N/A   Scattered Clouds
5:53 PM 63.0 °F 39.0 °F 41% 29.91 in 10.0 mi WNW 19.6 mph 28.8 mph N/A   Clear
6:53 PM 61.0 °F 39.9 °F 46% 29.92 in 10.0 mi WNW 18.4 mph 24.2 mph N/A   Clear
7:53 PM 57.9 °F 39.9 °F 51% 29.93 in 10.0 mi WNW 15.0 mph - N/A   Mostly Cloudy
8:53 PM 55.9 °F 39.9 °F 55% 29.94 in 10.0 mi WNW 12.7 mph - N/A   Clear
9:53 PM 55.0 °F 41.0 °F 59% 29.94 in 10.0 mi WNW 17.3 mph - N/A   Partly Cloudy
10:53 PM 54.0 °F 41.0 °F 62% 29.94 in 10.0 mi WNW 17.3 mph - N/A   Clear
11:53 PM 53.1 °F 42.1 °F 66% 29.94 in 10.0 mi West 10.4 mph - N/A   Clear